STARLINK-35821

Last updated on Fri Dec 05 2025 00:02:06 GMT+0000 (Coordinated Universal Time)

1 66372U 25254AA 25338.42725769 .00483155 00000+0 30875-2 0 9995 2 66372 53.1569 316.1358 0001567 64.6576 295.4606 15.74415610 4375
UTC large
Height (km)
Speed (km/s)
/
Latitude / Longitude
Inclination (degrees)
Orbital Period (minutes)
Azimuth
Elevation
Range (km)
Doppler Factor

Next 0 passes for location: London (51.5072 / 0.1276)

Sorry there are no passes over London.